Change the Weather History Date:

Monday, November 12, 2012

  Actual Average Record
Temperature  
Mean Temperature 26 °F -  
Max Temperature 30 °F 43 °F 65 °F (1964)
Min Temperature 23 °F 22 °F -1 °F (1986)
Degree Days  
Heating Degree Days 38    
Moisture  
Dew Point 18 °F    
Average Humidity 70    
Maximum Humidity 86    
Minimum Humidity 59    
Precipitation  
Precipitation 0.00 in - - ()
Sea Level Pressure  
Sea Level Pressure 30.07 in    
Wind  
Wind Speed 13 mph (West)    
Max Wind Speed 18 mph    
Max Gust Speed 26 mph    
Visibility 10 miles    
Events Snow    
Averages and records for this station are not official NWS values.
T = Trace of Precipitation, MM = Missing Value Source: NWS Daily Summary

Daily Weather History Graph

Daily Weather History Graph

Search for Another Location

Airport or City:

Trip Planner

Search our weather history database for the weather conditions in past years. The results will help you decide how hot, cold, wet, or windy it might be!

Date:

Astronomy

Nov. 12, 2012 Rise Set
Actual Time 6:49 AM CST 4:36 PM CST
Civil Twilight 6:18 AM CST 5:07 PM CST
Nautical Twilight 5:44 AM CST 5:41 PM CST
Astronomical Twilight 5:10 AM CST 6:15 PM CST
Moon 5:13 AM CST (11/12) 3:42 PM CST (11/12)
Length of Visible Light 10h 48m
Length of Day
9h 46m
Waning Crescent, 2% of the Moon is Illuminated
Nov 12
Waning Crescent
Nov 13
New
Nov 20
First Quarter
Nov 28
Full
Dec 6
Last Quarter

Hourly Weather History & Observations

Time (CST) Temp. Windchill Dew Point Humidity Pressure Visibility Wind Dir Wind Speed Gust Speed Precip Events Conditions
12:15 AM 30.2 °F 19.3 °F 23.0 °F 75% 29.93 in 10.0 mi West 15.0 mph 21.9 mph N/A   Overcast
12:35 AM 30.2 °F 20.8 °F 23.0 °F 75% 29.93 in 10.0 mi West 11.5 mph 16.1 mph N/A   Overcast
12:55 AM 30.2 °F 21.9 °F 23.0 °F 75% 29.92 in 10.0 mi West 9.2 mph - N/A   Overcast
1:15 AM 30.2 °F 19.8 °F 23.0 °F 75% 29.92 in 10.0 mi West 13.8 mph 17.3 mph N/A   Overcast
1:35 AM 28.4 °F 17.5 °F 21.2 °F 74% 29.92 in 10.0 mi West 13.8 mph 21.9 mph N/A   Overcast
1:55 AM 28.4 °F 17.0 °F 21.2 °F 74% 29.92 in 10.0 mi WSW 15.0 mph 19.6 mph N/A   Overcast
2:15 AM 28.4 °F 18.0 °F 21.2 °F 74% 29.94 in 10.0 mi West 12.7 mph - N/A   Overcast
2:35 AM 28.4 °F 20.4 °F 21.2 °F 74% 29.95 in 10.0 mi West 8.1 mph 17.3 mph N/A   Overcast
2:55 AM 28.4 °F 16.6 °F 19.4 °F 69% 29.96 in 10.0 mi West 16.1 mph 20.7 mph N/A   Overcast
3:15 AM 26.6 °F 16.2 °F 19.4 °F 74% 29.95 in 10.0 mi West 11.5 mph 21.9 mph N/A   Overcast
3:35 AM 26.6 °F 18.2 °F 19.4 °F 74% 29.96 in 10.0 mi West 8.1 mph - N/A   Overcast
3:55 AM 26.6 °F 14.3 °F 19.4 °F 74% 29.96 in 10.0 mi WSW 16.1 mph 21.9 mph N/A   Overcast
4:15 AM 26.6 °F 15.2 °F 19.4 °F 74% 29.96 in 10.0 mi West 13.8 mph 21.9 mph N/A   Overcast
4:35 AM 26.6 °F 15.7 °F 17.6 °F 69% 29.96 in 10.0 mi West 12.7 mph - N/A   Overcast
4:55 AM 26.6 °F 18.2 °F 17.6 °F 69% 29.96 in 10.0 mi West 8.1 mph - N/A   Overcast
5:15 AM 26.6 °F 15.2 °F 17.6 °F 69% 29.97 in 10.0 mi WSW 13.8 mph 20.7 mph N/A   Overcast
5:35 AM 23.0 °F 9.6 °F 15.8 °F 74% 29.98 in 10.0 mi West 16.1 mph 24.2 mph N/A   Mostly Cloudy
6:15 AM 23.0 °F 10.6 °F 15.8 °F 74% 29.99 in 10.0 mi West 13.8 mph 21.9 mph N/A   Overcast
6:55 AM 24.8 °F 14.0 °F 15.8 °F 69% 30.00 in 10.0 mi West 11.5 mph 18.4 mph N/A   Overcast
7:15 AM 24.8 °F 12.9 °F 15.8 °F 69% 30.01 in 10.0 mi West 13.8 mph 23.0 mph N/A   Overcast
7:35 AM 24.8 °F 12.9 °F 15.8 °F 69% 30.01 in 10.0 mi West 13.8 mph - N/A   Overcast
7:55 AM 24.8 °F 12.9 °F 15.8 °F 69% 30.01 in 10.0 mi West 13.8 mph 21.9 mph N/A   Overcast
8:15 AM 24.8 °F 11.9 °F 15.8 °F 69% 30.01 in 10.0 mi West 16.1 mph 20.7 mph N/A   Overcast
8:35 AM 24.8 °F 13.4 °F 17.6 °F 74% 30.02 in 10.0 mi West 12.7 mph 18.4 mph N/A   Overcast
8:55 AM 24.8 °F 12.9 °F 17.6 °F 74% 30.02 in 10.0 mi West 13.8 mph 20.7 mph N/A   Overcast
9:35 AM 26.6 °F 14.7 °F 15.8 °F 64% 30.02 in 10.0 mi WSW 15.0 mph 19.6 mph N/A   Overcast
9:55 AM 26.6 °F 14.7 °F 15.8 °F 64% 30.02 in 10.0 mi West 15.0 mph 19.6 mph N/A   Overcast
10:15 AM 26.6 °F 16.2 °F 17.6 °F 69% 30.03 in 10.0 mi WSW 11.5 mph 21.9 mph N/A   Overcast
10:35 AM 26.6 °F 15.2 °F 17.6 °F 69% 30.03 in 10.0 mi WSW 13.8 mph - N/A   Overcast
10:55 AM 26.6 °F 14.3 °F 17.6 °F 69% 30.03 in 10.0 mi West 16.1 mph 21.9 mph N/A   Overcast
11:15 AM 26.6 °F 14.7 °F 17.6 °F 69% 30.02 in 10.0 mi West 15.0 mph 23.0 mph N/A   Overcast
11:35 AM 28.4 °F 16.6 °F 17.6 °F 64% 30.01 in 10.0 mi WSW 16.1 mph 20.7 mph N/A   Overcast
12:15 PM 26.6 °F 13.4 °F 17.6 °F 69% 30.02 in 10.0 mi WSW 18.4 mph - N/A Snow Light Snow
12:35 PM 26.6 °F 13.4 °F 17.6 °F 69% 30.02 in 10.0 mi West 18.4 mph 26.5 mph N/A Snow Light Snow
12:55 PM 26.6 °F 14.3 °F 15.8 °F 64% 30.03 in 10.0 mi West 16.1 mph 25.3 mph N/A Snow Light Snow
1:35 PM 26.6 °F 14.7 °F 17.6 °F 69% 30.04 in 10.0 mi WSW 15.0 mph 24.2 mph N/A Snow Light Snow
1:55 PM 26.6 °F 14.7 °F 17.6 °F 69% 30.04 in 10.0 mi WSW 15.0 mph 21.9 mph N/A   Overcast
2:15 PM 26.6 °F 15.2 °F 17.6 °F 69% 30.05 in 10.0 mi West 13.8 mph 20.7 mph N/A Snow Light Snow
2:55 PM 26.6 °F 15.7 °F 19.4 °F 74% 30.06 in 3.0 mi WSW 12.7 mph - N/A Snow Light Snow
3:15 PM 26.6 °F 14.7 °F 19.4 °F 74% 30.07 in 10.0 mi WSW 15.0 mph 21.9 mph N/A   Overcast
3:35 PM 26.6 °F 15.2 °F 19.4 °F 74% 30.08 in 10.0 mi WSW 13.8 mph - N/A   Overcast
3:55 PM 26.6 °F 15.2 °F 19.4 °F 74% 30.09 in 10.0 mi WSW 13.8 mph 20.7 mph N/A   Overcast
4:35 PM 24.8 °F 16.9 °F 21.2 °F 86% 30.11 in 7.0 mi West 6.9 mph 17.3 mph N/A   Mostly Cloudy
4:55 PM 26.6 °F 15.7 °F 17.6 °F 69% 30.12 in 10.0 mi West 12.7 mph 17.3 mph N/A   Mostly Cloudy
5:15 PM 24.8 °F 15.3 °F 17.6 °F 74% 30.13 in 10.0 mi West 9.2 mph 16.1 mph N/A   Mostly Cloudy
5:35 PM 24.8 °F 14.0 °F 17.6 °F 74% 30.14 in 10.0 mi West 11.5 mph 18.4 mph N/A   Mostly Cloudy
5:55 PM 24.8 °F 15.3 °F 15.8 °F 69% 30.16 in 10.0 mi West 9.2 mph 17.3 mph N/A   Mostly Cloudy
6:15 PM 24.8 °F 16.1 °F 17.6 °F 74% 30.16 in 10.0 mi WSW 8.1 mph - N/A   Mostly Cloudy
6:55 PM 24.8 °F 16.1 °F 15.8 °F 69% 30.18 in 10.0 mi West 8.1 mph - N/A   Overcast
7:35 PM 24.8 °F 16.1 °F 15.8 °F 69% 30.19 in 10.0 mi West 8.1 mph - N/A   Overcast
7:55 PM 24.8 °F 16.1 °F 15.8 °F 69% 30.20 in 10.0 mi WSW 8.1 mph - N/A   Overcast
8:15 PM 26.6 °F 16.8 °F 15.8 °F 64% 30.21 in 10.0 mi West 10.4 mph - N/A   Overcast
8:35 PM 26.6 °F 17.5 °F 14.0 °F 59% 30.22 in 10.0 mi West 9.2 mph - N/A   Overcast
8:55 PM 26.6 °F 17.5 °F 15.8 °F 64% 30.23 in 10.0 mi West 9.2 mph - N/A   Overcast
9:15 PM 26.6 °F 17.5 °F 15.8 °F 64% 30.23 in 10.0 mi West 9.2 mph - N/A   Overcast
9:35 PM 26.6 °F 14.7 °F 15.8 °F 64% 30.24 in 10.0 mi West 15.0 mph 20.7 mph N/A   Overcast
9:55 PM 26.6 °F 16.8 °F 15.8 °F 64% 30.25 in 10.0 mi West 10.4 mph 18.4 mph N/A   Overcast
10:15 PM 26.6 °F 17.5 °F 15.8 °F 64% 30.25 in 10.0 mi WNW 9.2 mph 17.3 mph N/A   Overcast
10:35 PM 26.6 °F 19.1 °F 15.8 °F 64% 30.26 in 10.0 mi West 6.9 mph - N/A   Overcast
10:55 PM 26.6 °F 19.1 °F 17.6 °F 69% 30.27 in 10.0 mi West 6.9 mph - N/A   Overcast
11:15 PM 26.6 °F 17.5 °F 17.6 °F 69% 30.27 in 10.0 mi West 9.2 mph - N/A   Overcast
11:35 PM 26.6 °F 21.2 °F 15.8 °F 64% 30.28 in 10.0 mi West 4.6 mph - N/A   Overcast
11:55 PM 26.6 °F 19.1 °F 15.8 °F 64% 30.29 in 10.0 mi West 6.9 mph - N/A   Overcast